QPF
0.00 0.00 0.00 0.00 0.00 0.00 0.00 0.00 0.00 0.00 0.00 0.00 0.00 0.00 0.00 0.00 0.00 0.00 0.00 0.00 0.00 0.00 0.00 0.00 0.00 0.00 0.00 0.00 0.00 0.00 0.00 0.00 0.00 0.00 0.00 0.00 0.00 0.00 0.00 0.00 0.00 0.00 0.00
0.00 0.00 0.00 0.00 0.00 0.00 0.00 0.00 0.00 0.00 0.00 0.00 0.00 0.00 0.00 0.00 0.00 0.00 0.00 0.00 0.00 0.00 0.00 0.00 0.00 0.00 0.00 0.00 0.00 0.00 0.00 0.00 0.00 0.00 0.00 0.00 0.00 0.00 0.00 0.00 0.00 0.00 0.00
0.00 0.00 0.00 0.00 0.00 0.00 0.00 0.00 0.00 0.00 0.00 0.00 0.00 0.00 0.00 0.00 0.00 0.00 0.00 0.00 0.00 0.00 0.00 0.00 0.00 0.00 0.00 0.00 0.00 0.00 0.00 0.00 0.00 0.00 0.00 0.00 0.00 0.00 0.00 0.00 0.00 0.00 0.00
0.00 0.00 0.00 0.00 0.00 0.00 0.00 0.00 0.00 0.00 0.00 0.00 0.00 0.00 0.00 0.00 0.00 0.00 0.00 0.00 0.00 0.00 0.00 0.00 0.00 0.00 0.00 0.00 0.00 0.00 0.00 0.00 0.00 0.00 0.00 0.00 0.00 0.00 0.00 0.00 0.00 0.00 0.00
0.00 0.00 0.00 0.00 0.00 0.00 0.00 0.00 0.00 0.00 0.00 0.00 0.00 0.00 0.00 0.00 0.00 0.00 0.00 0.00 0.00 0.00 0.00 0.00 0.00 0.00 0.00 0.00 0.00 0.00 0.00 0.00 0.00 0.00 0.00 0.00 0.00 0.00 0.00 0.00 0.00 0.00 0.00
0.00 0.00 0.00 0.00 0.00 0.00 0.00 0.00 0.00 0.00 0.00 0.00 0.00 0.00 0.00 0.00 0.00 0.00 0.00 0.00 0.00 0.00 0.00 0.00 0.00 0.00 0.00 0.00 0.00 0.00 0.00 0.00 0.00 0.00 0.00 0.00 0.00 0.00 0.00 0.00 0.00 0.00 0.00
0.00 0.00 0.00 0.00 0.00 0.00 0.00 0.00 0.00 0.00 0.00 0.00 0.00 0.00 0.00 0.00 0.00 0.00 0.00 0.00 0.00 0.00 0.00 0.00 0.00 0.00 0.00 0.00 0.00 0.00 0.00 0.00 0.00 0.00 0.00 0.00 0.00 0.00 0.00 0.00 0.00 0.00 0.00
0.00 0.00 0.00 0.00 0.00 0.00 0.00 0.00 0.00 0.00 0.00 0.00 0.00 0.00 0.00 0.00 0.00 0.00 0.00 0.00 0.00 0.00 0.00 0.00 0.00 0.00 0.00 0.00 0.00 0.00 0.00 0.00 0.00 0.00 0.00 0.00 0.00 0.00 0.00 0.00 0.00 0.00 0.00
0.00 0.00 0.00 0.00 0.00 0.00 0.00 0.00 0.00 0.00 0.00 0.00 0.00 0.00 0.00 0.00 0.00 0.00 0.00 0.00 0.00 0.00 0.00 0.00 0.00 0.00 0.00 0.00 0.00 0.00 0.00 0.00 0.00 0.00 0.00 0.00 0.00 0.00 0.00 0.00 0.00 0.00 0.00
0.00 0.00 0.00 0.00 0.00 0.00 0.00 0.00 0.00 0.00 0.00 0.00 0.00 0.00 0.00 0.00 0.00 0.00 0.00 0.00 0.00 0.00 0.00 0.00 0.00 0.00 0.00 0.00 0.00 0.00 0.00 0.00 0.00 0.00 0.00 0.00 0.00 0.00 0.00 0.00 0.00 0.00 0.00
0.00 0.00 0.00 0.00 0.00 0.00 0.00 0.00 0.00 0.00 0.00 0.00 0.00 0.00 0.00 0.00 0.00 0.00 0.00 0.00 0.00 0.00 0.00 0.00 0.00 0.00 0.00 0.00 0.00 0.00 0.00 0.00 0.00 0.00 0.00 0.00 0.00 0.00 0.00 0.00 0.00 0.00 0.00
0.00 0.00 0.00 0.00 0.00 0.00 0.00 0.00 0.00 0.00 0.00 0.00 0.00 0.00 0.00 0.00 0.00 0.00 0.00 0.00 0.00 0.00 0.00 0.00 0.00 0.00 0.00 0.00 0.00 0.00 0.00 0.00 0.00 0.00 0.00 0.00 0.00 0.00 0.00 0.00 0.00 0.00 0.00
0.00 0.00 0.00 0.00 0.00 0.00 0.00 0.00 0.00 0.00 0.01 0.01 0.01 0.00 0.00 0.00 0.00 0.00 0.00 0.00 0.00 0.00 0.00 0.00 0.00 0.00 0.00 0.00 0.00 0.00 0.00 0.00 0.00 0.00 0.00 0.00 0.00 0.00 0.00 0.00 0.00 0.00 0.00
0.00 0.00 0.00 0.00 0.00 0.00 0.00 0.00 0.00 0.00 0.01 0.01 0.01 0.00 0.00 0.00 0.00 0.00 0.00 0.00 0.00 0.00 0.00 0.00 0.00 0.00 0.00 0.00 0.00 0.00 0.00 0.00 0.00 0.00 0.00 0.00 0.00 0.00 0.00 0.00 0.00 0.00 0.00
0.00 0.00 0.00 0.00 0.00 0.00 0.00 0.00 0.00 0.00 0.00 0.00 0.00 0.00 0.00 0.00 0.00 0.00 0.00 0.00 0.00 0.00 0.00 0.00 0.00 0.00 0.00 0.00 0.00 0.00 0.00 0.00 0.00 0.00 0.00 0.00 0.00 0.00 0.00 0.00 0.00 0.00 0.00
0.00 0.00 0.00 0.00 0.00 0.00 0.00 0.00 0.00 0.00 0.00 0.00 0.00 0.00 0.00 0.00 0.00 0.00 0.00 0.00 0.00 0.00 0.00 0.00 0.00 0.00 0.00 0.00 0.00 0.00 0.00 0.00 0.00 0.00 0.00 0.00 0.00 0.00 0.00 0.00 0.00 0.00 0.00
0.00 0.00 0.00 0.00 0.00 0.00 0.00 0.00 0.00 0.00 0.00 0.00 0.00 0.00 0.00 0.00 0.00 0.00 0.00 0.00 0.00 0.00 0.00 0.00 0.00 0.00 0.00 0.00 0.00 0.00 0.00 0.00 0.00 0.00 0.00 0.00 0.00 0.00 0.00 0.00 0.00 0.00 0.00
0.00 0.00 0.00 0.00 0.00 0.00 0.00 0.00 0.00 0.00 0.00 0.00 0.00 0.00 0.00 0.00 0.00 0.00 0.00 0.00 0.00 0.00 0.00 0.00 0.00 0.00 0.00 0.00 0.00 0.00 0.00 0.00 0.00 0.00 0.00 0.00 0.00 0.00 0.00 0.00 0.00 0.00 0.00
0.00 0.00 0.00 0.00 0.00 0.00 0.00 0.00 0.00 0.00 0.01 0.02 0.02 0.02 0.01 0.01 0.00 0.00 0.00 0.00 0.00 0.00 0.00 0.00 0.00 0.00 0.00 0.00 0.00 0.00 0.00 0.00 0.00 0.00 0.00 0.00 0.00 0.00 0.00 0.00 0.00 0.00 0.00
0.01 0.01 0.01 0.01 0.00 0.00 0.00 0.00 0.02 0.01 0.01 0.01 0.02 0.02 0.02 0.01 0.01 0.00 0.00 0.00 0.00 0.00 0.00 0.00 0.00 0.00 0.00 0.00 0.00 0.00 0.00 0.00 0.00 0.00 0.00 0.00 0.00 0.00 0.00 0.00 0.00 0.00 0.00
0.00 0.00 0.00 0.00 0.00 0.00 0.00 0.01 0.01 0.01 0.01 0.01 0.01 0.01 0.01 0.01 0.01 0.00 0.00 0.00 0.00 0.00 0.00 0.00 0.00 0.00 0.00 0.00 0.00 0.00 0.00 0.00 0.00 0.00 0.00 0.00 0.00 0.00 0.00 0.00 0.00 0.00 0.00
0.00 0.00 0.00 0.00 0.00 0.00 0.00 0.00 0.00 0.00 0.00 0.00 0.00 0.01 0.01 0.01 0.01 0.00 0.00 0.00 0.00 0.00 0.00 0.00 0.00 0.00 0.00 0.00 0.00 0.00 0.00 0.00 0.00 0.00 0.00 0.00 0.00 0.00 0.00 0.00 0.00 0.00 0.00
0.00 0.00 0.00 0.00 0.00 0.00 0.00 0.00 0.00 0.00 0.00 0.00 0.00 0.00 0.00 0.00 0.00 0.00 0.00 0.00 0.00 0.00 0.00 0.00 0.00 0.00 0.00 0.00 0.00 0.00 0.00 0.00 0.00 0.00 0.00 0.00 0.00 0.00 0.00 0.00 0.00 0.00 0.00
0.00 0.00 0.00 0.00 0.00 0.00 0.00 0.00 0.00 0.00 0.00 0.00 0.00 0.00 0.00 0.00 0.00 0.00 0.00 0.00 0.00 0.00 0.00 0.00 0.00 0.00 0.00 0.00 0.00 0.00 0.00 0.00 0.00 0.00 0.00 0.00 0.00 0.00 0.00 0.00 0.00 0.00 0.00
0.00 0.00 0.00 0.00 0.00 0.00 0.00 0.00 0.00 0.00 0.00 0.00 0.00 0.00 0.00 0.00 0.00 0.00 0.00 0.00 0.00 0.00 0.00 0.00 0.00 0.00 0.00 0.00 0.00 0.00 0.00 0.00 0.00 0.00 0.00 0.00 0.00 0.00 0.00 0.00 0.00 0.00 0.00
0.00 0.00 0.00 0.00 0.00 0.00 0.00 0.00 0.00 0.00 0.00 0.00 0.00 0.00 0.00 0.00 0.00 0.00 0.00 0.00 0.00 0.00 0.00 0.00 0.00 0.00 0.00 0.00 0.00 0.00 0.00 0.00 0.00 0.00 0.00 0.00 0.00 0.00 0.00 0.00 0.00 0.00 0.00
MSLP
1025.69 1025.68 1025.79 1025.90 1025.94 1025.90 1025.96 1026.05 1026.00 1025.96 1025.96 1025.93 1025.92 1026.16 1026.45 1026.77 1026.89 1027.01 1027.01 1026.83 1026.64 1026.47 1026.39 1026.82 1026.95 1026.98 1026.88 1026.69 1026.57 1026.55 1026.53 1026.54 1026.39 1026.15 1025.81 1025.31 1024.90 1024.58 1024.19 1023.91 1023.53 1023.22 1022.69
1025.51 1025.65 1025.71 1025.71 1025.72 1025.70 1025.74 1025.84 1025.90 1025.97 1025.98 1025.95 1025.79 1025.91 1026.33 1026.74 1027.16 1027.31 1027.38 1027.37 1027.21 1027.01 1027.12 1027.28 1027.39 1027.44 1027.28 1027.08 1026.95 1026.79 1026.77 1026.72 1026.57 1026.36 1026.00 1025.68 1025.30 1024.97 1024.55 1024.03 1023.75 1023.71 1023.11
1025.24 1025.47 1025.64 1025.69 1025.63 1025.69 1025.80 1025.92 1025.99 1026.06 1026.11 1025.84 1025.73 1025.82 1026.18 1026.81 1027.33 1027.62 1027.78 1027.87 1027.81 1027.78 1027.94 1027.95 1027.93 1027.89 1027.63 1027.34 1027.07 1027.03 1026.90 1026.85 1026.72 1026.32 1026.01 1025.54 1025.49 1025.11 1024.89 1024.74 1024.27 1024.11 1023.42
1024.86 1025.15 1025.32 1025.36 1025.42 1025.53 1025.62 1025.77 1025.93 1026.08 1026.12 1026.10 1026.07 1026.17 1026.47 1027.08 1027.62 1027.78 1027.94 1028.15 1028.31 1028.41 1028.57 1028.60 1028.43 1028.39 1028.16 1027.82 1027.49 1027.33 1027.15 1027.00 1026.82 1026.47 1026.16 1025.85 1025.69 1025.53 1025.33 1025.16 1024.85 1024.40 1024.17
1024.30 1024.56 1024.79 1024.94 1025.07 1025.35 1025.52 1025.70 1026.00 1026.03 1026.15 1026.09 1026.00 1026.29 1026.52 1026.94 1027.58 1027.91 1028.27 1028.43 1028.52 1028.81 1029.03 1028.93 1028.94 1028.96 1028.62 1028.12 1027.76 1027.57 1027.44 1027.37 1027.09 1026.81 1026.60 1026.15 1025.84 1025.63 1025.55 1025.25 1024.96 1024.62 1024.21
1024.04 1024.44 1024.66 1024.81 1024.97 1025.19 1025.34 1025.55 1025.78 1025.85 1025.97 1026.02 1026.11 1026.55 1026.81 1027.33 1027.75 1028.19 1028.34 1028.54 1028.83 1028.97 1029.21 1029.38 1029.41 1029.32 1029.03 1028.59 1028.10 1027.80 1027.66 1027.51 1027.26 1027.08 1026.87 1026.70 1026.30 1025.96 1025.79 1025.46 1025.27 1024.94 1024.56
1023.69 1024.07 1024.21 1024.38 1024.70 1024.96 1025.16 1025.43 1025.77 1026.04 1026.08 1026.21 1026.46 1027.25 1027.67 1028.06 1028.40 1028.53 1028.53 1028.71 1029.07 1029.37 1029.48 1029.56 1029.76 1029.80 1029.59 1029.05 1028.59 1028.18 1027.90 1027.64 1027.31 1027.23 1027.09 1026.96 1026.73 1026.42 1026.24 1025.96 1025.58 1025.23 1024.66
1022.89 1023.33 1023.74 1024.13 1024.42 1024.77 1025.00 1025.22 1025.53 1025.86 1025.91 1025.94 1026.23 1026.87 1027.76 1028.54 1028.66 1028.95 1029.27 1029.15 1029.25 1029.51 1029.73 1029.82 1030.06 1030.26 1030.10 1029.77 1029.21 1028.83 1028.26 1028.00 1027.79 1027.54 1027.48 1027.24 1027.13 1026.77 1026.56 1026.31 1025.92 1025.62 1025.14
1022.40 1022.67 1023.07 1023.48 1023.87 1024.18 1024.43 1024.72 1025.10 1025.31 1025.46 1025.53 1025.49 1026.04 1027.08 1027.45 1028.32 1029.11 1029.20 1029.69 1029.77 1029.84 1030.00 1030.06 1030.33 1030.45 1030.35 1030.06 1029.91 1029.83 1029.14 1028.63 1028.24 1027.98 1027.84 1027.69 1027.30 1027.07 1026.79 1026.55 1026.21 1025.94 1025.38
1021.67 1021.93 1022.23 1022.61 1022.99 1023.46 1023.93 1023.99 1024.21 1024.65 1025.05 1025.26 1025.33 1025.17 1025.44 1026.28 1027.58 1028.97 1029.36 1029.68 1030.04 1030.14 1030.22 1030.23 1030.33 1030.39 1030.29 1030.20 1029.99 1029.70 1029.67 1029.50 1029.04 1028.59 1028.40 1028.13 1027.86 1027.43 1027.05 1026.78 1026.61 1026.34 1025.84
1020.86 1021.19 1021.58 1022.02 1022.37 1022.72 1022.81 1023.19 1023.67 1023.99 1024.18 1024.43 1024.73 1025.12 1025.73 1026.09 1026.61 1027.75 1029.00 1029.58 1030.06 1030.10 1030.21 1030.23 1030.42 1030.68 1030.71 1030.59 1030.58 1030.15 1029.75 1029.57 1029.45 1029.00 1028.87 1028.63 1028.53 1028.12 1027.74 1027.35 1026.87 1026.58 1026.12
1020.26 1020.41 1020.70 1021.03 1021.44 1021.85 1022.17 1022.33 1022.51 1023.06 1023.41 1023.73 1023.92 1024.15 1024.57 1025.28 1026.00 1026.78 1027.78 1028.76 1029.21 1029.77 1030.10 1030.28 1030.43 1030.52 1030.62 1030.58 1030.46 1030.26 1029.88 1029.59 1029.72 1029.45 1029.16 1028.82 1028.85 1028.42 1028.16 1027.80 1027.56 1027.35 1026.82
1019.31 1019.34 1019.70 1020.21 1020.44 1020.66 1020.96 1021.39 1021.92 1022.23 1022.48 1022.86 1022.99 1022.96 1023.36 1023.87 1024.27 1025.32 1026.44 1027.45 1028.58 1029.37 1029.82 1029.90 1030.15 1030.34 1030.28 1030.54 1030.52 1030.34 1030.09 1029.85 1029.91 1029.72 1029.34 1029.18 1028.99 1028.92 1028.58 1028.28 1027.91 1027.75 1027.21
1017.98 1018.21 1018.74 1018.99 1019.35 1019.67 1020.01 1020.58 1021.11 1021.37 1021.63 1021.88 1022.08 1022.31 1022.48 1022.87 1023.38 1023.95 1024.87 1026.48 1027.80 1028.57 1029.15 1029.24 1029.33 1029.51 1029.59 1029.85 1030.03 1029.96 1029.88 1029.37 1029.34 1029.43 1029.40 1029.17 1029.06 1028.93 1028.69 1028.37 1028.30 1028.06 1027.64
1017.20 1017.51 1017.62 1018.05 1018.22 1018.70 1019.05 1019.36 1019.89 1020.12 1020.48 1020.59 1020.91 1020.94 1021.10 1021.60 1022.06 1022.28 1022.68 1023.53 1024.91 1027.06 1027.75 1028.56 1028.89 1028.77 1029.01 1029.26 1029.44 1029.72 1029.85 1029.54 1029.39 1029.52 1029.42 1029.17 1029.20 1029.15 1028.60 1028.37 1028.55 1028.30 1027.92
1016.18 1016.43 1016.82 1017.17 1017.46 1017.70 1017.95 1018.46 1018.74 1018.85 1019.29 1019.60 1019.70 1020.39 1020.81 1020.98 1021.53 1022.08 1022.45 1022.73 1023.29 1024.58 1026.37 1026.82 1027.68 1027.96 1028.42 1028.81 1028.95 1029.15 1029.36 1029.39 1029.31 1029.29 1029.35 1029.29 1029.20 1028.91 1028.86 1028.85 1028.79 1028.66 1028.37
1015.20 1015.53 1015.81 1016.12 1016.33 1016.70 1017.07 1017.56 1017.78 1018.12 1018.51 1018.79 1019.20 1019.45 1019.75 1020.48 1021.23 1021.90 1022.70 1022.98 1023.07 1023.32 1025.07 1026.46 1026.76 1027.19 1027.62 1028.06 1028.35 1028.63 1028.82 1029.22 1029.29 1029.17 1029.21 1029.07 1029.14 1029.16 1029.04 1028.83 1028.80 1028.78 1028.59
1014.62 1014.76 1015.20 1015.53 1015.81 1016.12 1016.46 1016.82 1016.98 1017.35 1017.73 1018.08 1018.40 1019.01 1019.32 1019.93 1020.62 1021.28 1022.14 1022.87 1022.55 1023.04 1023.91 1025.17 1026.23 1026.70 1027.13 1027.69 1028.11 1028.20 1028.24 1028.62 1028.99 1028.90 1028.85 1028.86 1028.87 1028.71 1028.88 1028.83 1028.77 1028.77 1028.61
1013.90 1014.33 1014.71 1014.86 1015.03 1015.16 1015.56 1015.91 1016.13 1016.51 1016.89 1017.08 1017.48 1018.11 1018.48 1019.01 1019.61 1020.19 1020.84 1021.86 1022.17 1022.36 1022.90 1023.98 1025.34 1026.18 1026.61 1027.19 1027.85 1028.18 1028.26 1028.42 1028.62 1028.65 1028.50 1028.47 1028.74 1028.51 1028.56 1028.50 1028.59 1028.63 1028.48
1013.31 1013.60 1013.79 1014.03 1014.25 1014.51 1014.92 1015.22 1015.58 1015.85 1016.02 1016.43 1016.69 1017.17 1017.68 1018.14 1018.37 1019.34 1019.88 1020.68 1021.54 1022.56 1023.58 1023.77 1024.86 1025.74 1026.48 1027.14 1027.75 1028.43 1028.59 1028.68 1028.52 1028.39 1028.25 1028.12 1028.35 1028.31 1028.38 1028.28 1028.45 1028.60 1028.43
1012.89 1013.05 1013.40 1013.61 1013.83 1014.14 1014.34 1014.74 1015.23 1015.38 1015.54 1015.98 1016.53 1017.09 1017.58 1017.78 1018.76 1018.96 1019.93 1020.74 1020.68 1022.29 1022.48 1023.97 1024.97 1025.83 1026.43 1026.90 1027.24 1027.85 1028.08 1028.52 1028.43 1028.37 1028.21 1028.21 1028.08 1028.18 1028.33 1028.11 1028.18 1028.40 1028.22
1013.58 1013.65 1014.00 1014.22 1014.44 1014.55 1014.70 1014.95 1015.18 1015.57 1015.84 1016.10 1016.84 1017.44 1017.73 1018.27 1018.22 1019.29 1019.74 1020.50 1021.46 1021.88 1023.32 1024.11 1024.61 1025.01 1025.75 1026.24 1026.49 1027.16 1027.87 1028.32 1028.60 1028.44 1028.18 1027.71 1027.72 1027.87 1027.78 1027.84 1027.69 1027.80 1027.72
1014.06 1014.23 1014.20 1014.50 1014.60 1014.65 1014.76 1014.84 1015.19 1015.65 1015.97 1016.35 1016.68 1017.21 1017.82 1018.42 1018.89 1019.56 1019.63 1020.71 1021.37 1021.76 1022.78 1023.50 1023.67 1023.90 1024.70 1025.06 1025.78 1026.73 1027.33 1027.26 1027.66 1027.81 1028.03 1027.61 1027.52 1027.33 1027.16 1026.99 1026.75 1026.86 1027.04
1014.37 1014.36 1014.40 1014.60 1014.80 1014.79 1014.80 1014.95 1015.19 1015.50 1016.02 1016.47 1016.79 1017.06 1017.47 1018.03 1018.70 1019.54 1020.42 1021.36 1021.93 1021.85 1022.91 1023.41 1023.54 1023.36 1024.11 1024.57 1025.04 1025.67 1026.52 1026.96 1027.37 1027.28 1027.64 1027.67 1026.90 1026.80 1026.32 1026.25 1026.00 1026.14 1026.41
1014.86 1015.06 1015.15 1015.20 1015.26 1015.07 1015.02 1015.02 1015.51 1016.11 1016.51 1017.08 1017.52 1017.55 1017.85 1018.13 1018.67 1019.46 1020.16 1020.90 1021.90 1022.69 1022.77 1023.39 1023.08 1023.01 1023.70 1024.27 1024.74 1025.86 1026.18 1026.83 1027.09 1026.93 1026.98 1027.16 1026.46 1026.36 1026.01 1025.86 1025.83 1025.65 1025.91
1015.53 1015.45 1015.45 1015.42 1015.37 1015.37 1015.27 1015.40 1015.86 1016.23 1016.68 1017.01 1018.03 1018.29 1018.42 1018.67 1019.00 1019.29 1019.81 1020.65 1021.72 1022.23 1022.43 1022.99 1022.90 1022.95 1023.63 1024.11 1024.17 1024.63 1025.33 1026.01 1026.52 1026.66 1026.21 1026.73 1026.22 1026.17 1025.99 1025.58 1025.55 1025.62 1025.66
Thickness
5672 5672 5671 5670 5669 5669 5668 5666 5665 5664 5662 5660 5659 5657 5653 5649 5646 5642 5638 5635 5633 5629 5626 5619 5614 5609 5606 5603 5599 5594 5588 5582 5577 5573 5570 5568 5564 5560 5556 5550 5545 5540 5538
5670 5669 5669 5669 5668 5668 5667 5665 5663 5662 5660 5658 5657 5654 5650 5644 5639 5635 5631 5627 5623 5620 5616 5611 5605 5600 5596 5593 5589 5586 5580 5574 5570 5565 5562 5557 5553 5549 5545 5541 5536 5529 5527
5671 5670 5669 5667 5666 5664 5663 5661 5659 5657 5656 5655 5654 5651 5647 5640 5633 5628 5624 5619 5615 5610 5604 5600 5595 5591 5587 5584 5582 5576 5572 5566 5561 5558 5554 5551 5544 5540 5535 5529 5524 5518 5516
5669 5668 5667 5666 5664 5663 5662 5660 5657 5654 5653 5650 5648 5644 5640 5633 5627 5623 5619 5613 5607 5601 5595 5591 5587 5582 5577 5574 5571 5567 5564 5559 5554 5550 5545 5541 5536 5529 5523 5518 5512 5507 5502
5668 5667 5664 5662 5662 5659 5658 5655 5652 5649 5646 5646 5645 5640 5635 5631 5624 5617 5612 5606 5601 5595 5588 5583 5579 5572 5568 5565 5562 5557 5553 5547 5543 5539 5534 5531 5528 5521 5514 5509 5503 5498 5492
5666 5663 5661 5660 5659 5657 5655 5651 5648 5645 5643 5641 5639 5634 5629 5623 5618 5611 5607 5600 5594 5589 5582 5576 5571 5565 5559 5555 5553 5548 5544 5539 5534 5529 5524 5519 5516 5511 5505 5499 5492 5486 5481
5663 5660 5659 5659 5656 5653 5650 5646 5643 5639 5637 5634 5630 5622 5616 5611 5605 5602 5598 5594 5587 5579 5574 5569 5563 5557 5552 5547 5542 5539 5534 5529 5526 5520 5514 5509 5504 5498 5492 5486 5480 5475 5472
5665 5662 5659 5656 5653 5649 5646 5643 5638 5635 5632 5630 5624 5618 5609 5601 5596 5590 5584 5581 5578 5571 5565 5559 5553 5546 5541 5537 5531 5526 5523 5518 5513 5509 5503 5498 5492 5486 5481 5474 5468 5462 5459
5665 5663 5659 5656 5652 5648 5645 5640 5634 5632 5629 5626 5624 5614 5603 5604 5592 5581 5576 5568 5565 5561 5555 5550 5542 5535 5530 5526 5519 5511 5508 5505 5502 5496 5491 5486 5482 5476 5470 5463 5457 5452 5449
5663 5662 5659 5655 5651 5645 5640 5638 5634 5629 5624 5621 5619 5616 5610 5599 5591 5575 5568 5560 5554 5550 5544 5539 5533 5526 5521 5516 5509 5503 5495 5489 5486 5484 5478 5473 5469 5465 5459 5453 5446 5441 5436
5663 5660 5656 5652 5648 5644 5642 5637 5632 5628 5623 5619 5613 5607 5599 5591 5584 5575 5560 5551 5544 5540 5534 5530 5522 5514 5507 5501 5495 5490 5486 5479 5475 5473 5466 5461 5454 5450 5444 5440 5436 5431 5427
5663 5661 5656 5652 5648 5644 5639 5636 5633 5627 5621 5616 5612 5606 5599 5590 5580 5570 5559 5546 5541 5533 5525 5519 5512 5504 5497 5491 5484 5479 5475 5470 5463 5460 5456 5451 5444 5440 5433 5428 5421 5415 5413
5665 5664 5658 5652 5648 5645 5641 5635 5629 5625 5620 5615 5611 5608 5601 5592 5584 5571 5559 5548 5534 5524 5516 5510 5502 5494 5488 5480 5473 5468 5464 5459 5452 5449 5445 5440 5434 5427 5422 5416 5412 5404 5401
5667 5662 5656 5652 5648 5644 5640 5633 5625 5622 5618 5614 5609 5602 5597 5590 5580 5572 5560 5542 5527 5519 5510 5505 5499 5492 5484 5476 5468 5462 5457 5455 5449 5443 5435 5431 5424 5418 5412 5407 5400 5393 5388
5666 5661 5658 5654 5650 5643 5638 5633 5628 5624 5618 5616 5610 5605 5599 5591 5581 5575 5567 5556 5541 5518 5513 5497 5489 5486 5478 5469 5461 5453 5447 5443 5439 5433 5427 5421 5414 5407 5404 5398 5389 5382 5377
5664 5661 5656 5651 5645 5641 5636 5630 5626 5624 5617 5613 5610 5600 5593 5586 5578 5567 5557 5550 5542 5527 5510 5500 5487 5480 5471 5461 5455 5448 5440 5434 5429 5425 5418 5412 5405 5399 5392 5384 5377 5370 5364
5662 5657 5652 5647 5643 5638 5632 5625 5622 5618 5612 5607 5599 5594 5588 5577 5566 5556 5545 5537 5532 5525 5506 5489 5481 5473 5465 5456 5449 5440 5434 5426 5420 5416 5408 5403 5394 5387 5380 5374 5367 5360 5354
5654 5652 5646 5641 5637 5632 5626 5619 5616 5611 5605 5599 5593 5583 5577 5568 5557 5547 5535 5525 5523 5514 5501 5488 5472 5463 5456 5446 5438 5433 5427 5418 5413 5408 5401 5394 5386 5381 5371 5364 5358 5350 5344
5650 5644 5638 5636 5633 5630 5624 5618 5612 5606 5600 5596 5589 5579 5572 5562 5553 5543 5533 5521 5513 5508 5498 5483 5466 5454 5448 5439 5429 5423 5418 5410 5404 5398 5392 5386 5376 5372 5363 5357 5350 5342 5334
5644 5640 5636 5632 5628 5624 5617 5612 5606 5600 5595 5587 5582 5573 5566 5558 5552 5539 5529 5516 5506 5494 5480 5474 5459 5447 5437 5426 5418 5409 5405 5398 5395 5389 5384 5379 5369 5362 5354 5350 5342 5334 5326
5635 5632 5627 5622 5618 5613 5610 5603 5595 5591 5585 5578 5569 5561 5554 5548 5535 5531 5520 5511 5501 5482 5476 5461 5447 5436 5424 5417 5412 5401 5396 5388 5384 5378 5374 5368 5362 5355 5346 5340 5334 5325 5318
5615 5612 5607 5603 5598 5595 5592 5586 5581 5575 5568 5562 5553 5544 5538 5531 5528 5515 5508 5501 5483 5472 5455 5446 5437 5431 5419 5410 5404 5395 5386 5378 5372 5369 5361 5358 5353 5345 5340 5334 5328 5319 5312
5597 5594 5592 5587 5584 5580 5576 5573 5566 5560 5554 5547 5541 5534 5524 5515 5508 5500 5497 5481 5470 5463 5451 5439 5435 5427 5415 5407 5399 5385 5379 5373 5365 5360 5351 5347 5345 5337 5333 5329 5323 5314 5306
5583 5581 5578 5574 5569 5566 5563 5558 5552 5545 5537 5530 5525 5520 5514 5505 5496 5487 5475 5462 5455 5448 5437 5428 5422 5418 5407 5400 5393 5383 5372 5362 5353 5348 5341 5334 5333 5329 5327 5321 5314 5307 5298
5563 5559 5555 5552 5549 5547 5546 5542 5534 5526 5520 5513 5506 5501 5496 5489 5481 5470 5461 5451 5440 5431 5424 5413 5413 5408 5398 5391 5384 5370 5361 5351 5343 5338 5332 5325 5324 5320 5317 5311 5303 5297 5288
5545 5543 5540 5537 5534 5531 5530 5525 5517 5511 5505 5498 5485 5478 5473 5467 5461 5454 5449 5440 5428 5419 5414 5405 5405 5399 5388 5380 5373 5365 5354 5343 5332 5326 5324 5316 5313 5308 5304 5299 5293 5287 5279